Weather History for KCEF - December, 2012

Change the Weather History Date:

Saturday, December 29, 2012

  Actual Average Record
Temperature  
Mean Temperature 24 °F -  
Max Temperature 30 °F 33 °F 53 °F (2003)
Min Temperature 18 °F 19 °F 8 °F (2000)
Degree Days  
Heating Degree Days 41    
Moisture  
Dew Point 25 °F    
Average Humidity 90    
Maximum Humidity 95    
Minimum Humidity 80    
Precipitation  
Precipitation 0.52 in - - ()
Snow  
Snow 0.00 in - - ()
Snow Depth 3.00 in    
Sea Level Pressure  
Sea Level Pressure 29.69 in    
Wind  
Wind Speed 6 mph (North)    
Max Wind Speed 18 mph    
Max Gust Speed -    
Visibility 6 miles    
Events Snow    
Averages and records for this station are not official NWS values.
T = Trace of Precipitation, MM = Missing Value Source: NWS Daily Summary

Daily Weather History Graph

Daily Weather History Graph

Search for Another Location

Airport or City:

Trip Planner

Search our weather history database for the weather conditions in past years. The results will help you decide how hot, cold, wet, or windy it might be!

Date:

Astronomy

Dec. 29, 2012 Rise Set
Actual Time 7:18 AM EST 4:26 PM EST
Civil Twilight 6:46 AM EST 4:58 PM EST
Nautical Twilight 6:11 AM EST 5:33 PM EST
Astronomical Twilight 5:37 AM EST 6:07 PM EST
Moon 5:58 PM EST (12/29) 7:48 AM EST (12/29)
Length of Visible Light 10h 11m
Length of Day
9h 08m
Full, 98% of the Moon is Illuminated
Dec 29
Full
Jan 4
Last Quarter
Jan 11
New
Jan 18
First Quarter
Jan 26
Full

Hourly Weather History & Observations

Time (EST) Temp. Windchill Dew Point Humidity Pressure Visibility Wind Dir Wind Speed Gust Speed Precip Events Conditions
12:55 AM 20.7 °F - 19.2 °F 94% 30.02 in 10.0 mi Calm Calm - N/A   Clear
1:55 AM 21.7 °F - 20.1 °F 93% 30.03 in 10.0 mi Calm Calm - N/A   Clear
2:55 AM 18.5 °F - 16.7 °F 93% 30.01 in 10.0 mi Calm Calm - N/A   Clear
3:55 AM 19.2 °F - 17.4 °F 93% 30.01 in 10.0 mi Calm Calm - N/A   Clear
4:55 AM 19.0 °F - 17.2 °F 93% 30.01 in 10.0 mi Calm Calm - N/A   Partly Cloudy
5:55 AM 19.2 °F - 17.4 °F 93% 29.98 in 10.0 mi Calm Calm - N/A   Partly Cloudy
6:55 AM 19.2 °F - 17.6 °F 93% 29.99 in 10.0 mi Calm Calm - N/A   Mostly Cloudy
7:55 AM 21.4 °F - 19.9 °F 94% 29.98 in 10.0 mi Calm Calm - N/A   Overcast
8:55 AM 23.5 °F 19.1 °F 22.3 °F 95% 29.94 in 10.0 mi NNE 3.5 mph - N/A   Overcast
9:55 AM 25.5 °F 21.3 °F 23.2 °F 91% 29.92 in 10.0 mi NNE 3.5 mph - N/A   Overcast
10:55 AM 27.3 °F - 22.8 °F 83% 29.89 in 10.0 mi Calm Calm - N/A   Overcast
11:55 AM 28.4 °F 20.4 °F 24.8 °F 86% 29.82 in 6.2 mi North 8.1 mph - N/A Snow Light Snow
12:13 PM 28.4 °F 19.7 °F 24.8 °F 86% 29.80 in 10.0 mi North 9.2 mph - N/A   Scattered Clouds
12:25 PM 28.4 °F 19.1 °F 24.8 °F 86% 29.78 in 10.0 mi NNE 10.4 mph - N/A Snow Light Snow
12:26 PM 28.4 °F 19.1 °F 24.8 °F 86% 29.78 in 10.0 mi NNE 10.4 mph - N/A Snow Light Snow
12:28 PM 28.4 °F 19.1 °F 24.8 °F 86% 29.78 in 10.0 mi NNE 10.4 mph - N/A Snow Light Snow
12:42 PM 28.4 °F 23.3 °F 24.8 °F 86% 29.79 in 10.0 mi North 4.6 mph - N/A   Overcast
12:47 PM 28.4 °F 23.3 °F 24.8 °F 86% 29.79 in 10.0 mi North 4.6 mph - N/A   Overcast
12:49 PM 28.4 °F 22.2 °F 24.8 °F 86% 29.79 in 10.0 mi North 5.8 mph - N/A   Overcast
12:55 PM 29.1 °F 23.0 °F 24.8 °F 84% 29.78 in 10.0 mi North 5.8 mph - 0.00 in   Overcast
12:58 PM 28.4 °F 21.2 °F 24.8 °F 86% 29.79 in 10.0 mi North 6.9 mph - N/A   Overcast
1:04 PM 28.4 °F 21.2 °F 24.8 °F 86% 29.76 in 10.0 mi NNE 6.9 mph - N/A Snow Light Snow
1:20 PM 30.2 °F 24.3 °F 24.8 °F 80% 29.75 in 10.0 mi North 5.8 mph - N/A Snow Light Snow
1:29 PM 30.2 °F 25.4 °F 24.8 °F 80% 29.74 in 10.0 mi North 4.6 mph - N/A   Mostly Cloudy
1:55 PM 30.0 °F 24.1 °F 25.0 °F 82% 29.72 in 10.0 mi North 5.8 mph - 0.00 in   Partly Cloudy
2:23 PM 30.2 °F 24.3 °F 24.8 °F 80% 29.71 in 10.0 mi NNW 5.8 mph - N/A   Mostly Cloudy
2:36 PM 30.2 °F 23.4 °F 24.8 °F 80% 29.71 in 10.0 mi North 6.9 mph - N/A   Mostly Cloudy
2:37 PM 30.2 °F 23.4 °F 24.8 °F 80% 29.71 in 10.0 mi North 6.9 mph - N/A Snow Light Snow
2:43 PM 30.2 °F 23.4 °F 24.8 °F 80% 29.71 in 10.0 mi North 6.9 mph - N/A Snow Light Snow
2:55 PM 29.8 °F 21.5 °F 25.5 °F 84% 29.70 in 4.0 mi North 9.2 mph - 0.00 in Snow Light Snow
3:19 PM 30.2 °F 21.9 °F 26.6 °F 86% 29.70 in 4.0 mi NNE 9.2 mph - N/A Snow Light Snow
3:23 PM 28.4 °F 19.1 °F 26.6 °F 93% 29.66 in 1.0 mi NNE 10.4 mph - N/A Snow Snow
3:55 PM 28.6 °F 20.7 °F 27.1 °F 94% 29.67 in 2.0 mi NNE 8.1 mph - 0.00 in Snow Light Snow
4:26 PM 28.4 °F 19.7 °F 26.6 °F 93% 29.62 in 10.0 mi NNE 9.2 mph - N/A Snow Light Snow
4:38 PM 28.4 °F 21.2 °F 26.6 °F 93% 29.63 in 3.0 mi NNE 6.9 mph - N/A Snow Light Snow
4:44 PM 28.4 °F 21.2 °F 26.6 °F 93% 29.63 in 1.5 mi NNE 6.9 mph - N/A Snow Light Snow
4:55 PM 28.2 °F 19.5 °F 27.0 °F 95% 29.61 in 1.5 mi NNE 9.2 mph - 0.00 in Snow Light Snow
4:56 PM 28.4 °F 19.7 °F 26.6 °F 93% 29.61 in 1.5 mi NNE 9.2 mph - N/A Snow Light Snow
5:03 PM 28.4 °F 19.7 °F 26.6 °F 93% 29.61 in 2.5 mi NNE 9.2 mph - N/A Snow Light Snow
5:06 PM 28.4 °F 19.1 °F 26.6 °F 93% 29.60 in 2.5 mi NNE 10.4 mph - N/A Snow Light Snow
5:10 PM 28.4 °F 19.7 °F 26.6 °F 93% 29.60 in 1.5 mi NNE 9.2 mph - N/A Snow Snow
5:55 PM 27.9 °F 19.1 °F 26.6 °F 95% 29.57 in 1.2 mi North 9.2 mph - 0.00 in Snow Snow
6:33 PM 28.4 °F 18.5 °F 26.6 °F 93% 29.54 in 1.0 mi North 11.5 mph - N/A Snow Snow
6:55 PM 27.7 °F 16.1 °F 26.4 °F 95% 29.53 in 0.8 mi North 15.0 mph - N/A Snow Snow
7:09 PM 28.4 °F 18.5 °F 26.6 °F 93% 29.51 in 2.0 mi North 11.5 mph - N/A Snow Light Snow
7:45 PM 28.4 °F 17.0 °F 26.6 °F 93% 29.50 in 0.8 mi North 15.0 mph - N/A Snow Snow
7:55 PM 27.5 °F 16.3 °F 26.2 °F 95% 29.50 in 0.8 mi North 13.8 mph - N/A Snow Snow
8:18 PM 28.4 °F 17.0 °F 26.6 °F 93% 29.49 in 0.8 mi North 15.0 mph - N/A Snow Snow
8:19 PM 28.4 °F 17.0 °F 26.6 °F 93% 29.48 in 0.8 mi North 15.0 mph - N/A Snow Snow
8:32 PM 28.4 °F 16.6 °F 26.6 °F 93% 29.47 in 0.8 mi North 16.1 mph - N/A Snow Snow
8:47 PM 28.4 °F 17.0 °F 26.6 °F 93% 29.48 in 0.8 mi North 15.0 mph - N/A Snow Snow
8:49 PM 28.4 °F 15.8 °F 26.6 °F 93% 29.47 in 0.8 mi North 18.4 mph - N/A Snow Snow
8:55 PM 27.9 °F 15.9 °F 26.1 °F 93% 29.47 in 0.8 mi North 16.1 mph - N/A Snow Snow
9:19 PM 28.4 °F 17.5 °F 26.6 °F 93% 29.48 in 1.0 mi North 13.8 mph - N/A Snow Light Snow
9:39 PM 28.4 °F 17.0 °F 26.6 °F 93% 29.48 in 1.5 mi North 15.0 mph - N/A Snow Light Snow
9:55 PM 28.4 °F 18.0 °F 26.2 °F 92% 29.49 in 3.0 mi NNE 12.7 mph - N/A Snow Light Snow
10:52 PM 28.4 °F 18.5 °F 26.6 °F 93% 29.51 in 8.0 mi NNE 11.5 mph - N/A Snow Light Snow
10:55 PM 28.9 °F 19.2 °F 26.6 °F 91% 29.51 in 8.0 mi NNE 11.5 mph - N/A Snow Light Snow
10:59 PM 28.4 °F 19.1 °F 26.6 °F 93% 29.51 in 5.0 mi North 10.4 mph - N/A Snow Light Snow
11:09 PM 28.4 °F 19.1 °F 26.6 °F 93% 29.50 in 10.0 mi North 10.4 mph - N/A   Overcast
11:26 PM 28.4 °F 19.7 °F 26.6 °F 93% 29.51 in 10.0 mi NNW 9.2 mph - N/A Snow Light Snow
11:55 PM 29.3 °F 21.5 °F 26.8 °F 90% 29.51 in 10.0 mi North 8.1 mph - 0.00 in Snow Light Snow